Hourly Weather Dzhuryn

Today, 16 May, Sunday

Time Temperature Precipitation Wind Pressure Humidity
00:00 +10°C° 0 mm 2 mps 727 mmHg 89%
01:00 +9°C° 0 mm 2 mps 727 mmHg 90%
02:00 +9°C° 0 mm 2 mps 727 mmHg 91%
03:00 +9°C° 0 mm 2 mps 727 mmHg 92%
04:00 +9°C° 0 mm 2 mps 726 mmHg 92%
05:00 +9°C° 0 mm 2 mps 726 mmHg 93%
06:00 +10°C° 0 mm 3 mps 726 mmHg 88%
07:00 +12°C° 0 mm 3 mps 726 mmHg 83%
08:00 +14°C° 0 mm 4 mps 727 mmHg 78%
09:00 +15°C° 0 mm 4 mps 726 mmHg 74%
10:00 +18°C° 0 mm 4 mps 726 mmHg 70%
11:00 +19°C° 0 mm 4 mps 726 mmHg 66%
12:00 +20°C° 0.2 mm 5 mps 726 mmHg 63%
13:00 +20°C° 0.2 mm 5 mps 726 mmHg 60%
14:00 +21°C° 0.2 mm 6 mps 726 mmHg 57%
15:00 +20°C° 0.3 mm 5 mps 725 mmHg 63%
16:00 +19°C° 0.3 mm 4 mps 725 mmHg 69%
17:00 +18°C° 0.3 mm 3 mps 725 mmHg 74%
18:00 +17°C° 0.3 mm 3 mps 725 mmHg 78%
19:00 +15°C° 0.3 mm 2 mps 725 mmHg 82%
20:00 +14°C° 0.3 mm 2 mps 725 mmHg 85%
21:00 +14°C° 0.3 mm 2 mps 725 mmHg 87%
22:00 +14°C° 0.3 mm 2 mps 725 mmHg 88%
23:00 +14°C° 0.3 mm 2 mps 725 mmHg 90%

Tomorrow, 17 May, Monday

Time Temperature Precipitation Wind Pressure Humidity
00:00 +13°C° 0 mm 2 mps 725 mmHg 90%
01:00 +13°C° 0 mm 2 mps 725 mmHg 91%
02:00 +13°C° 0 mm 2 mps 725 mmHg 91%
03:00 +13°C° 0 mm 2 mps 725 mmHg 92%
04:00 +12°C° 0 mm 2 mps 725 mmHg 93%
05:00 +12°C° 0 mm 2 mps 725 mmHg 93%
06:00 +13°C° 0 mm 2 mps 726 mmHg 88%
07:00 +13°C° 0 mm 3 mps 726 mmHg 83%
08:00 +14°C° 0 mm 3 mps 726 mmHg 77%
09:00 +16°C° 0 mm 2 mps 725 mmHg 72%
10:00 +18°C° 0 mm 2 mps 725 mmHg 67%
11:00 +20°C° 0 mm 1 mps 725 mmHg 61%
12:00 +21°C° 0 mm 1 mps 724 mmHg 59%
13:00 +21°C° 0 mm 1 mps 724 mmHg 56%
14:00 +22°C° 0 mm 1 mps 723 mmHg 54%
15:00 +21°C° 0 mm 1 mps 723 mmHg 57%
16:00 +20°C° 0 mm 2 mps 723 mmHg 61%
17:00 +19°C° 0 mm 2 mps 722 mmHg 64%
18:00 +18°C° 0 mm 2 mps 722 mmHg 70%
19:00 +17°C° 0 mm 2 mps 722 mmHg 75%
20:00 +15°C° 0 mm 1 mps 722 mmHg 80%
21:00 +15°C° 0.1 mm 1 mps 721 mmHg 81%
22:00 +15°C° 0.1 mm 1 mps 721 mmHg 83%
23:00 +14°C° 0.1 mm 1 mps 721 mmHg 84%

Day after tomorrow, 18 May, Tuesday

Time Temperature Precipitation Wind Pressure Humidity
00:00 +14°C° 0.7 mm 1 mps 720 mmHg 87%
01:00 +13°C° 0.7 mm 1 mps 720 mmHg 90%
02:00 +13°C° 0.7 mm 1 mps 720 mmHg 94%
03:00 +12°C° 2.5 mm 3 mps 720 mmHg 95%
04:00 +11°C° 2.5 mm 4 mps 720 mmHg 96%
05:00 +10°C° 2.5 mm 5 mps 720 mmHg 97%
06:00 +10°C° 3.4 mm 6 mps 720 mmHg 97%
07:00 +9°C° 3.4 mm 6 mps 721 mmHg 96%
08:00 +9°C° 3.4 mm 7 mps 721 mmHg 96%
09:00 +9°C° 2.6 mm 7 mps 721 mmHg 96%
10:00 +9°C° 2.6 mm 8 mps 722 mmHg 95%
11:00 +9°C° 2.6 mm 8 mps 722 mmHg 95%
12:00 +7°C° 1.9 mm 9 mps 723 mmHg 94%
13:00 +7°C° 1.9 mm 9 mps 723 mmHg 94%
14:00 +7°C° 1.9 mm 9 mps 723 mmHg 94%
15:00 +7°C° 1.6 mm 9 mps 724 mmHg 93%
16:00 +7°C° 1.6 mm 9 mps 724 mmHg 93%
17:00 +8°C° 1.6 mm 9 mps 724 mmHg 92%
18:00 +9°C° 0.4 mm 8 mps 725 mmHg 92%
19:00 +9°C° 0.4 mm 8 mps 725 mmHg 92%
20:00 +9°C° 0.4 mm 8 mps 725 mmHg 91%
21:00 +9°C° 0.1 mm 8 mps 725 mmHg 91%
22:00 +9°C° 0.1 mm 8 mps 726 mmHg 91%
23:00 +8°C° 0.1 mm 7 mps 726 mmHg 90%

19 May, Wednesday

Time Temperature Precipitation Wind Pressure Humidity
00:00 +8°C° 0 mm 7 mps 726 mmHg 90%
01:00 +8°C° 0 mm 7 mps 726 mmHg 90%
02:00 +8°C° 0 mm 7 mps 726 mmHg 89%
03:00 +8°C° 0 mm 7 mps 726 mmHg 90%
04:00 +6°C° 0 mm 7 mps 726 mmHg 91%
05:00 +6°C° 0 mm 7 mps 726 mmHg 91%
06:00 +8°C° 0 mm 7 mps 727 mmHg 89%
07:00 +9°C° 0 mm 7 mps 727 mmHg 87%
08:00 +10°C° 0 mm 8 mps 727 mmHg 85%
09:00 +11°C° 0 mm 8 mps 727 mmHg 79%
10:00 +12°C° 0 mm 8 mps 727 mmHg 74%
11:00 +13°C° 0 mm 8 mps 728 mmHg 69%
12:00 +13°C° 0.1 mm 8 mps 728 mmHg 68%
13:00 +15°C° 0.1 mm 7 mps 728 mmHg 66%
14:00 +15°C° 0.1 mm 6 mps 728 mmHg 65%
15:00 +15°C° 0 mm 6 mps 728 mmHg 65%
16:00 +15°C° 0 mm 5 mps 728 mmHg 66%
17:00 +15°C° 0 mm 4 mps 727 mmHg 66%
18:00 +14°C° 0 mm 4 mps 728 mmHg 73%
19:00 +12°C° 0 mm 3 mps 728 mmHg 81%
20:00 +10°C° 0 mm 2 mps 728 mmHg 88%
21:00 +11°C° 0 mm 1 mps 728 mmHg 88%
22:00 +10°C° 0 mm 1 mps 728 mmHg 89%
23:00 +10°C° 0 mm 1 mps 728 mmHg 90%

20 May, Thursday

Time Temperature Precipitation Wind Pressure Humidity
00:00 +9°C° 0 mm 1 mps 728 mmHg 90%
01:00 +9°C° 0 mm 1 mps 727 mmHg 90%
02:00 +8°C° 0 mm 2 mps 727 mmHg 91%
03:00 +8°C° 0 mm 2 mps 727 mmHg 90%
04:00 +8°C° 0 mm 2 mps 727 mmHg 89%
05:00 +8°C° 0 mm 2 mps 726 mmHg 88%
06:00 +9°C° 0.6 mm 2 mps 726 mmHg 90%
07:00 +9°C° 0.6 mm 2 mps 727 mmHg 92%
08:00 +9°C° 0.6 mm 2 mps 727 mmHg 94%
09:00 +9°C° 2 mm 3 mps 727 mmHg 94%
10:00 +9°C° 2 mm 3 mps 727 mmHg 95%
11:00 +9°C° 2 mm 3 mps 727 mmHg 95%
12:00 +8°C° 3.2 mm 4 mps 726 mmHg 95%
13:00 +8°C° 3.2 mm 4 mps 726 mmHg 95%
14:00 +8°C° 3.2 mm 5 mps 726 mmHg 94%
15:00 +8°C° 3.4 mm 5 mps 726 mmHg 95%
16:00 +8°C° 3.4 mm 5 mps 726 mmHg 95%
17:00 +8°C° 3.4 mm 5 mps 726 mmHg 95%
18:00 +8°C° 2.5 mm 6 mps 726 mmHg 95%
19:00 +7°C° 2.5 mm 6 mps 726 mmHg 95%
20:00 +7°C° 2.5 mm 6 mps 726 mmHg 95%
21:00 +7°C° 2.4 mm 6 mps 726 mmHg 95%
22:00 +6°C° 2.4 mm 7 mps 726 mmHg 95%
23:00 +6°C° 2.4 mm 7 mps 726 mmHg 95%

21 May, Friday

Time Temperature Precipitation Wind Pressure Humidity
00:00 +6°C° 1.7 mm 7 mps 726 mmHg 95%
01:00 +6°C° 1.7 mm 7 mps 726 mmHg 95%
02:00 +6°C° 1.7 mm 7 mps 727 mmHg 95%
03:00 +6°C° 1.2 mm 7 mps 727 mmHg 94%
04:00 +6°C° 1.2 mm 7 mps 727 mmHg 93%
05:00 +6°C° 1.2 mm 8 mps 727 mmHg 92%
06:00 +8°C° 0.1 mm 7 mps 728 mmHg 92%
07:00 +8°C° 0.1 mm 7 mps 728 mmHg 91%
08:00 +9°C° 0.1 mm 6 mps 729 mmHg 90%
09:00 +9°C° 0.2 mm 6 mps 729 mmHg 89%
10:00 +9°C° 0.2 mm 6 mps 730 mmHg 88%
11:00 +10°C° 0.2 mm 6 mps 730 mmHg 87%
12:00 +11°C° 0.4 mm 6 mps 731 mmHg 82%
13:00 +13°C° 0.4 mm 6 mps 731 mmHg 77%
14:00 +14°C° 0.4 mm 6 mps 731 mmHg 72%
15:00 +14°C° 0.1 mm 5 mps 731 mmHg 71%
16:00 +15°C° 0.1 mm 5 mps 732 mmHg 70%
17:00 +15°C° 0.1 mm 4 mps 732 mmHg 68%
18:00 +13°C° 0 mm 3 mps 732 mmHg 72%
19:00 +13°C° 0 mm 2 mps 732 mmHg 75%
20:00 +11°C° 0 mm 1 mps 732 mmHg 78%
21:00 +11°C° 0 mm 1 mps 732 mmHg 79%
22:00 +9°C° 0 mm 2 mps 732 mmHg 79%
23:00 +8°C° 0 mm 2 mps 733 mmHg 80%
Show more

We Need Your Consent

Meteoprog and our Service Providers may store and access personal data such as cookies, device identifiers or other similar technologies on your device and process such data to personalise content and ads, as well as provide social media features and to analyse the traffic.

  • Store and/or access information on your device

    Cookies, device identifiers or other information can be stored or accessed on your device for the purposes indicated above.

  • Personalised ads and content, ad and content measurement, audience insights, and products development

    Ads and content can be personalised based on a profile. More data can be added to better personalise ads and content. Ad and content performance can be measured. Insights about the audience who saw the ads and content can be derived. Such data can be used to develop or improve user’s experience, systems and software.

By clicking ‘I Agree’ you will allow the use of indicated cookies, device identifiers, web beacons or other similar technologies. Your settings can be changed in the browser on your device.

For certain purposes, legitimate interests may be relied on, rather than consent. You can read more about this in our Privacy and Cookie Policy.